星链-31230 (STARLINK-31230 )

导读

STARLINK-31230是美国SpaceX公司星链(Starlink)星座的一员,于2024年1月29日发射。星链星座旨在通过近地轨道部署海量卫星,为全球尤其是偏远缺网区域提供高速低延迟宽带互联网服务,支持视频通话、在线游戏、远程办公等场景,持续推动全球网络覆盖基础设施建设。

基本信息
目录编号:
58890
目录名称:
STARLINK-31230
国际标识:
2024-020Q
轨道中心:
EARTH
卫星名称:
星链-31230
卫星全名:
星链-31230 (STARLINK-31230 )
卫星状态:
在轨 (已飞行871 天)
发射日期:
2024-01-29 UTC
国别 :
美国 (US)
星等 :
--
轨道信息
数据来源 国际轨道数据
星历时间: 2026-06-17T17:24:46+0800
21小时前
查看轨道信息
半长轴: 6840.877km
偏心率: 0.0001258
轨道倾角: 53.160°
近地点辐角 79.181°
升交点赤经 215.963°
平近点角 280.933°
近地点: 461.879km
远地点: 463.601km
周期: 93.848分钟
每日圈数: 15.343879
详细信息
固有亮度:
5
最大亮度:
0.3
卫星平台:
Starlink v2.0 mini
覆盖范围:
全球
运营商:
太空探索技术公司
运营商所在国:
美国
制造商(研发单位):
太空探索技术公司
制造商所在国:
美国
使用方式:
暂无
卫星简介
星链(Starlink)计划是由太空探索技术公司(SpaceX)提出的一个巨型低轨卫星互联网星座项目,计划在2019年至2024年间在太空搭建由约1.2万颗卫星组成的“星链”网络,其中1584颗将部署在地球上空550千米处的近地轨道,并从2020年开始工作。该卫星仍在工作。
2D轨道图
3D轨道图
轨道高度分析图
轨道倾角分析图
轨道综合分析图
查看轨道综合分析图